Hors Challenge

Le Trail Des Trappistes - Chimay - Bourlers (27.00 km)

dimanche 08 septembre 2019

Vous pouvez trouver Le classement original sur : https://my2.raceresult.com
 
LE TRAIL DES TRAPPISTES - CHIMAY - BOURLERS
DISTANCE : 27.00 km
dimanche 08 septembre 2019
 
Place dos NOM Catégorie Pl/cat temps temps/km Vitesse
01:00:00              
1 2083 WANNES VAN GIEL SH 1 1:51:23 04:08 14.54
2 3995 LOUIS DELATTRE SH 2 1:52:00 04:09 14.46
3 3994 MANUELA SOCCOL SD 1 1:52:12 04:09 14.44
4 2072 ELIO POGGI SH 3 1:52:38 04:10 14.38
5 2012 JO VAN DEN BRULLE V1 1 1:58:27 04:23 13.68
6 3991 AURELIEN CHAMPENOIS SH 4 1:59:03 04:25 13.61
7 265 JEROEN KINS SH 5 1:59:26 04:25 13.56
8 200 JIMMY HERMAN SH 6 2:03:13 04:34 13.15
9 186 THOMAS DETRY SH 7 2:10:24 04:50 12.42
10 3998 DIMITRU PANTUS SH 8 2:10:35 04:50 12.41
11 414 CLÉMENT LECOMTE SH 9 2:10:42 04:50 12.39
12 480 BART NOOYENS V1 2 2:13:00 04:56 12.18
13 557 JOHANN DELON SH 10 2:14:23 04:59 12.06
14 2011 FRANÇOIS PICHENEAUD SH 11 2:15:50 05:02 11.93
15 259 ERWIN EVERS V1 3 2:16:49 05:04 11.84
16 140 DAMIEN RIFFLART SH 12 2:17:45 05:06 11.76
17 558 THOMAS DELON SH 13 2:17:49 05:06 11.75
18 477 ANTOINE VERKEST SH 14 2:18:05 05:07 11.73
19 2062 JURGEN RITZEN V2 1 2:18:41 05:08 11.68
20 3993 DORIAN LALOYAUX SH 15 2:18:55 05:09 11.66
21 2016 THIERRY REPAN V2 2 2:19:14 05:09 11.64
22 2065 MICKAEL VAN DEN HAUWE SH 16 2:19:27 05:10 11.62
23 2043 DAVID FERDIN V1 4 2:20:53 05:13 11.50
24 314 DAVID VANKERKOVEN V1 5 2:23:20 05:19 11.30
25 298 BJORN DE MESMAECKER V1 6 2:23:54 05:20 11.26
26 89 BJORN DROOGMANS V1 7 2:24:49 05:22 11.19
27 482 JOACHIM BERGS SH 17 2:25:11 05:23 11.16
28 3990 GAËTAN LECLERCQ SH 18 2:25:33 05:23 11.13
29 330 LAURENT ZANIER V1 8 2:25:54 05:24 11.10
30 336 SAMUEL DUROT V1 9 2:26:21 05:25 11.07
31 473 HAMMER BRYAN V1 10 2:26:38 05:26 11.05
32 367 PHILLIP COCHRANE V1 11 2:26:43 05:26 11.04
33 2082 JEROME COLLARD V2 3 2:26:53 05:26 11.03
34 3983 ROMAIN GENARD SH 19 2:26:57 05:27 11.02
35 2031 ANTOINE LENNE SH 20 2:27:40 05:28 10.97
36 2 YANN LEFETZ V1 12 2:28:10 05:29 10.93
37 261 MAXIME DAUBENTON SH 21 2:29:02 05:31 10.87
38 404 BRUNO MALLET V2 4 2:30:09 05:34 10.79
39 3 MATTHIEU GRANDCLAUDE SH 22 2:30:09 05:34 10.79
40 438 GUY VANDEWALLE SH 23 2:30:10 05:34 10.79
41 260 RUBEN BRONDEEL SH 24 2:30:48 05:35 10.74
42 76 JEAN-PHILIPPE THOLL SH 25 2:31:10 05:36 10.72
43 448 MAARTEN ROGGE SH 26 2:31:45 05:37 10.68
44 53 BOB VISSENBERG SH 27 2:32:32 05:39 10.62
45 410 MARIE JENNEQUIN SD 2 2:33:08 05:40 10.58
46 3992 DONALD ZUTTERMAN V3 1 2:33:22 05:41 10.56
47 3988 RIEN ROTTYY SH 28 2:33:25 05:41 10.56
48 3989 SAMUEL GISTELINCK SH 29 2:33:26 05:41 10.56
49 500 FLORENT ROUSSEAUX V1 13 2:34:28 05:43 10.49
50 503 MARC CHARLES V2 5 2:34:51 05:44 10.46
51 511 WOUTER DE LANGE SH 30 2:34:55 05:44 10.46
52 2061 JAN WITHOFS V1 14 2:35:36 05:46 10.41
53 449 KLAAS VERHOEVE SH 31 2:35:56 05:47 10.39
54 365 NANNE VAN DER BURG V1 15 2:36:14 05:47 10.37
55 459 ELI COPPENS SH 32 2:36:56 05:49 10.32
56 460 ANTON DE PRIJCK SH 33 2:36:58 05:49 10.32
57 389 JULIEN REGNART SH 34 2:37:22 05:50 10.29
58 226 TIM ROELANTS SH 35 2:37:59 05:51 10.25
59 331 GUNTHER DE RON V2 6 2:38:56 05:53 10.19
60 337 STEVEN VLEK SH 36 2:39:51 05:55 10.13
61 356 LUDOVIC LECALVEZ V2 7 2:40:04 05:56 10.12
62 295 MARC VONCKEN V2 8 2:41:07 05:58 10.05
63 292 HANS MARTENS V2 9 2:41:10 05:58 10.05
64 296 ROEL HENDRIKS V2 10 2:41:11 05:58 10.05
65 390 THOMAS TRYHOEN SH 37 2:41:55 06:00 10.01
66 82 JEROEN BOS V2 11 2:42:15 06:01 9.98
67 83 KARLIJN HOONDERT A2 1 2:42:15 06:01 9.98
68 234 KRIS VAN DIJCK SH 38 2:42:20 06:01 9.98
69 364 KONSTANTIN SMIRNOV V2 12 2:42:25 06:01 9.97
70 2069 CECILE MESTRINI SD 3 2:42:41 06:02 9.96
71 264 STIJN VRANKEN SH 39 2:44:51 06:06 9.83
72 393 VEERLE VAN DEN BRULLE A1 1 2:45:27 06:08 9.79
73 369 ALAIN PEPIN V2 13 2:45:45 06:08 9.77
74 441 JEREMY JOOS SH 40 2:46:11 06:09 9.75
75 532 VINCENT LEROY SH 41 2:46:16 06:09 9.74
76 530 JULIEN CRAEYE SH 42 2:46:52 06:11 9.71
77 531 HERVÉ LEROY SH 43 2:47:09 06:11 9.69
78 408 GASTON VERMEIREN SH 44 2:48:28 06:14 9.62
79 115 FRANK BULENS V2 14 2:48:54 06:15 9.59
80 537 DOMINIQUE JOURDAIN V2 15 2:49:08 06:16 9.58
81 352 ROSE LEMPEREUR A2 2 2:49:27 06:17 9.56
82 2027 FRANÇOIS BAUDE V1 16 2:49:28 06:17 9.56
83 183 THOMAS LEHMANN SH 45 2:50:11 06:18 9.52
84 119 ANNELEEN LAUWERS A2 3 2:51:02 06:20 9.47
85 317 JO VAN HESSCHE V2 16 2:51:16 06:21 9.46
86 373 ANTOINE LANDRE SH 46 2:51:26 06:21 9.45
87 247 ARNAUD DE POTTER SH 47 2:52:02 06:22 9.42
88 2003 STÉPHANIE LEROY A1 2 2:52:15 06:23 9.40
89 463 FRÉDÉRIC VANDENHEULE V1 17 2:52:21 06:23 9.40
90 485 ANASTASSIA EFIMENKO SD 4 2:52:33 06:23 9.39
91 2037 SÉBASTIEN GOESSENS V1 18 2:52:39 06:24 9.38
92 351 FRANCK LEMPEREUR V2 17 2:53:31 06:26 9.34
93 456 HENK VOS V2 18 2:53:54 06:26 9.32
94 457 BARBARA SAAT A1 3 2:53:59 06:27 9.31
95 347 CEDRIC ZAOUI V1 19 2:54:39 06:28 9.28
96 323 DIRK VANDE VELDE V2 19 2:54:54 06:29 9.26
97 403 ERIC GOBBERS V2 20 2:56:45 06:33 9.17
98 378 NICOLAS RICHE SH 48 2:57:23 06:34 9.13
99 379 FABIEN RICHE V2 21 2:57:23 06:34 9.13
100 363 PIERRICK HETMANIUK SH 49 2:59:40 06:39 9.02
101 2049 MICHAEL BIASINO V1 20 2:59:40 06:39 9.02
102 185 ARNAUD BOURLET V1 21 3:00:08 06:40 8.99
103 2015 TOM MOMMAERT SH 50 3:00:40 06:41 8.97
104 36 FRANÇOIS TOUSSAINT SH 51 3:00:53 06:42 8.96
105 300 MATHIAS CREEMERS SH 52 3:00:55 06:42 8.95
106 546 MATHIEU BAQUET V1 22 3:01:20 06:43 8.93
107 433 XAVIER DECRAENE SH 53 3:01:29 06:43 8.93
108 435 AMAURY JOURET SH 54 3:01:29 06:43 8.93
109 357 STEFANIE DE BORLE SD 5 3:02:54 06:46 8.86
110 50 KATLEEN PEIRENS SD 6 3:05:38 06:53 8.73
111 3984 CONRAD CORNU SH 55 3:13:30 07:10 8.37
112 3985 ANTHONY POLI SH 56 3:13:30 07:10 8.37
113 544 GREGORY DUMONT V1 23 3:13:58 07:11 8.35
114 328 MÉLISSA BENIS SD 7 3:14:17 07:12 8.34
115 452 JEAN-PAUL SEMET V2 22 3:14:52 07:13 8.31
116 399 FRANK MELOTTE V2 23 3:17:46 07:19 8.19
117 233 KARIN ROBBEN SD 8 3:17:54 07:20 8.19
118 157 CLÉMENT PUKICA SH 57 3:19:41 07:24 8.11
119 156 CASSANDRE COET SD 9 3:20:13 07:25 8.09
120 52 KEVIN BLOMME SH 58 3:23:18 07:32 7.97
121 437 THOMAS DRUGMAN SH 59 3:24:21 07:34 7.93
122 2080 KRISTOF DEMEULEMEESTER V1 24 3:24:31 07:34 7.92
123 2081 TINE MALFRERE SD 10 3:24:32 07:35 7.92
124 257 DANNY PETERS SH 60 3:26:39 07:39 7.84
125 48 DAMIEN GRIMBERGHS SH 61 3:27:29 07:41 7.81
126 436 DAMIEN BEHEN SH 62 3:27:46 07:42 7.80
127 471 STEPHANE PIERREUX V1 25 3:28:35 07:44 7.77
128 534 MAGALI SAUCEZ SD 11 3:35:54 08:00 7.50
129 552 DELPHINE LHOTE SD 12 3:50:15 08:32 7.04
130 358 DIRK THEYS V2 24 3:51:11 08:34 7.01
131 311 JÉRÉMY VAN DAELEN SH 63 4:15:15 09:27 6.35